Charles City, IA

8:35 PM CDT on August 23, 2016 (GMT -0500)
Charles City Municipal

Weather History for KCCY - June, 2013

Change the Weather History Date:

Sunday, June 2, 2013

  Actual Average Record
Temperature  
Mean Temperature 55 °F -  
Max Temperature 62 °F 75 °F 89 °F (1972)
Min Temperature 48 °F 51 °F 40 °F (1956)
Degree Days  
Heating Degree Days 10    
Growing Degree Days 5 (Base 50)    
Moisture  
Dew Point 44 °F    
Average Humidity 67    
Maximum Humidity 87    
Minimum Humidity 45    
Precipitation  
Precipitation 0.00 in - - ()
Sea Level Pressure  
Sea Level Pressure 30.02 in    
Wind  
Wind Speed 14 mph (North)    
Max Wind Speed 21 mph    
Max Gust Speed 31 mph    
Visibility 10 miles    
Events      
Averages and records for this station are not official NWS values.
T = Trace of Precipitation, MM = Missing Value Source: NWS Daily Summary

Daily Weather History Graph

Daily Weather History Graph

Search for Another Location

Airport or City:

Trip Planner

Search our weather history database for the weather conditions in past years. The results will help you decide how hot, cold, wet, or windy it might be!

Date:

Astronomy

Jun. 02, 2013 Rise Set
Actual Time 5:33 AM CDT 8:44 PM CDT
Civil Twilight 4:58 AM CDT 9:18 PM CDT
Nautical Twilight 4:14 AM CDT 10:03 PM CDT
Astronomical Twilight 3:20 AM CDT 10:57 PM CDT
Moon 2:08 AM CDT (6/2) 3:07 PM CDT (6/2)
Length of Visible Light 16h 20m
Length of Day
15h 10m
Waning Crescent, 30% of the Moon is Illuminated
Jun 2
Waning Crescent
Jun 8
New
Jun 16
First Quarter
Jun 23
Full
Jun 29
Last Quarter

Hourly Weather History & Observations

Time (CDT) Temp. Dew Point Humidity Pressure Visibility Wind Dir Wind Speed Gust Speed Precip Events Conditions
12:15 AM 55.4 °F 50.0 °F 82% 29.88 in 10.0 mi North 18.4 mph 27.6 mph N/A   Overcast
12:35 AM 53.6 °F 48.2 °F 82% 29.89 in 10.0 mi NNW 16.1 mph 23.0 mph N/A   Overcast
12:55 AM 53.6 °F 48.2 °F 82% 29.90 in 10.0 mi NNW 20.7 mph 27.6 mph N/A   Overcast
1:15 AM 51.8 °F 46.4 °F 82% 29.91 in 10.0 mi North 18.4 mph 25.3 mph N/A   Overcast
1:35 AM 51.8 °F 46.4 °F 82% 29.91 in 10.0 mi NNW 20.7 mph 31.1 mph N/A   Overcast
1:55 AM 51.8 °F 44.6 °F 76% 29.92 in 10.0 mi North 19.6 mph 29.9 mph N/A   Overcast
2:15 AM 51.8 °F 46.4 °F 82% 29.92 in 10.0 mi NNW 15.0 mph 23.0 mph N/A   Overcast
2:35 AM 51.8 °F 44.6 °F 76% 29.92 in 10.0 mi NNW 19.6 mph 26.5 mph N/A   Overcast
2:55 AM 50.0 °F 44.6 °F 82% 29.93 in 10.0 mi North 17.3 mph 24.2 mph N/A   Overcast
3:15 AM 50.0 °F 42.8 °F 76% 29.94 in 10.0 mi North 15.0 mph 23.0 mph N/A   Overcast
3:35 AM 50.0 °F 42.8 °F 76% 29.93 in 10.0 mi North 17.3 mph 24.2 mph N/A   Overcast
3:55 AM 50.0 °F 44.6 °F 82% 29.94 in 10.0 mi North 12.7 mph - N/A   Overcast
4:15 AM 50.0 °F 42.8 °F 76% 29.94 in 10.0 mi North 13.8 mph - N/A   Scattered Clouds
4:35 AM 50.0 °F 42.8 °F 76% 29.95 in 10.0 mi North 15.0 mph - N/A   Mostly Cloudy
4:55 AM 50.0 °F 42.8 °F 76% 29.95 in 10.0 mi North 11.5 mph 17.3 mph N/A   Mostly Cloudy
5:15 AM 50.0 °F 42.8 °F 76% 29.96 in 10.0 mi North 11.5 mph - N/A   Overcast
5:35 AM 48.2 °F 44.6 °F 87% 29.97 in 7.0 mi North 17.3 mph - N/A   Overcast
5:55 AM 50.0 °F 44.6 °F 82% 29.98 in 10.0 mi North 11.5 mph - N/A   Overcast
6:15 AM 50.0 °F 42.8 °F 76% 29.99 in 10.0 mi NNW 16.1 mph - N/A   Overcast
6:35 AM 50.0 °F 42.8 °F 76% 30.00 in 10.0 mi North 12.7 mph 19.6 mph N/A   Overcast
6:55 AM 50.0 °F 42.8 °F 76% 30.01 in 10.0 mi NNW 15.0 mph - N/A   Overcast
7:15 AM 48.2 °F 42.8 °F 82% 30.02 in 10.0 mi North 13.8 mph 20.7 mph N/A   Mostly Cloudy
7:35 AM 48.2 °F 42.8 °F 82% 30.03 in 10.0 mi NNW 11.5 mph - N/A   Mostly Cloudy
7:55 AM 48.2 °F 42.8 °F 82% 30.03 in 10.0 mi North 16.1 mph 21.9 mph N/A   Overcast
8:35 AM 50.0 °F 41.0 °F 71% 30.04 in 10.0 mi NNE 17.3 mph 23.0 mph N/A   Overcast
8:55 AM 50.0 °F 41.0 °F 71% 30.05 in 10.0 mi North 18.4 mph - N/A   Overcast
9:15 AM 50.0 °F 41.0 °F 71% 30.06 in 10.0 mi North 16.1 mph 23.0 mph N/A   Overcast
9:35 AM 50.0 °F 41.0 °F 71% 30.06 in 10.0 mi North 16.1 mph 21.9 mph N/A   Overcast
9:55 AM 50.0 °F 41.0 °F 71% 30.07 in 10.0 mi North 13.8 mph 21.9 mph N/A   Overcast
10:15 AM 51.8 °F 41.0 °F 67% 30.07 in 10.0 mi North 12.7 mph 19.6 mph N/A   Overcast
10:35 AM 51.8 °F 42.8 °F 71% 30.07 in 10.0 mi North 15.0 mph - N/A   Overcast
10:55 AM 51.8 °F 42.8 °F 71% 30.08 in 10.0 mi North 16.1 mph - N/A   Overcast
11:15 AM 51.8 °F 42.8 °F 71% 30.07 in 10.0 mi North 16.1 mph - N/A   Overcast
11:35 AM 53.6 °F 42.8 °F 67% 30.07 in 10.0 mi North 12.7 mph - N/A   Overcast
11:55 AM 53.6 °F 42.8 °F 67% 30.07 in 10.0 mi NNW 15.0 mph - N/A   Overcast
12:15 PM 55.4 °F 42.8 °F 63% 30.07 in 10.0 mi North 16.1 mph - N/A   Mostly Cloudy
12:35 PM 55.4 °F 44.6 °F 67% 30.07 in 10.0 mi North 12.7 mph 21.9 mph N/A   Scattered Clouds
12:55 PM 55.4 °F 44.6 °F 67% 30.07 in 10.0 mi NNW 13.8 mph - N/A   Mostly Cloudy
1:15 PM 55.4 °F 42.8 °F 63% 30.06 in 10.0 mi North 11.5 mph 19.6 mph N/A   Mostly Cloudy
1:35 PM 57.2 °F 44.6 °F 63% 30.06 in 10.0 mi North 12.7 mph - N/A   Scattered Clouds
1:55 PM 57.2 °F 42.8 °F 59% 30.06 in 10.0 mi NNW 10.4 mph 20.7 mph N/A   Scattered Clouds
2:15 PM 59.0 °F 42.8 °F 55% 30.06 in 10.0 mi North 16.1 mph - N/A   Scattered Clouds
2:35 PM 59.0 °F 42.8 °F 55% 30.05 in 10.0 mi North 12.7 mph - N/A   Scattered Clouds
2:55 PM 59.0 °F 44.6 °F 59% 30.06 in 10.0 mi North 12.7 mph - N/A   Partly Cloudy
3:15 PM 59.0 °F 42.8 °F 55% 30.05 in 10.0 mi NNW 10.4 mph 18.4 mph N/A   Partly Cloudy
3:35 PM 60.8 °F 44.6 °F 55% 30.06 in 10.0 mi Variable 5.8 mph 15.0 mph N/A   Scattered Clouds
3:55 PM 60.8 °F 44.6 °F 55% 30.05 in 10.0 mi North 11.5 mph - N/A   Mostly Cloudy
4:15 PM 60.8 °F 42.8 °F 52% 30.05 in 10.0 mi NNE 9.2 mph - N/A   Partly Cloudy
4:35 PM 62.6 °F 42.8 °F 48% 30.04 in 10.0 mi Variable 6.9 mph - N/A   Partly Cloudy
4:55 PM 62.6 °F 42.8 °F 48% 30.04 in 10.0 mi Variable 4.6 mph 12.7 mph N/A   Scattered Clouds
5:15 PM 62.6 °F 44.6 °F 52% 30.04 in 10.0 mi NNW 6.9 mph 15.0 mph N/A   Scattered Clouds
5:35 PM 62.6 °F 41.0 °F 45% 30.04 in 10.0 mi Variable 6.9 mph - N/A   Partly Cloudy
5:55 PM 62.6 °F 42.8 °F 48% 30.03 in 10.0 mi NNW 11.5 mph - N/A   Clear
6:15 PM 62.6 °F 42.8 °F 48% 30.03 in 10.0 mi North 6.9 mph - N/A   Clear
6:35 PM 62.6 °F 41.0 °F 45% 30.03 in 10.0 mi North 6.9 mph - N/A   Clear
6:55 PM 62.6 °F 42.8 °F 48% 30.03 in 10.0 mi NW 8.1 mph - N/A   Clear
7:15 PM 62.6 °F 42.8 °F 48% 30.03 in 10.0 mi North 6.9 mph - N/A   Clear
7:35 PM 62.6 °F 42.8 °F 48% 30.03 in 10.0 mi North 6.9 mph - N/A   Clear
7:55 PM 62.6 °F 42.8 °F 48% 30.03 in 10.0 mi NW 6.9 mph - N/A   Clear
8:15 PM 60.8 °F 42.8 °F 52% 30.03 in 10.0 mi North 4.6 mph - N/A   Clear
8:35 PM 59.0 °F 46.4 °F 63% 30.03 in 10.0 mi NNW 4.6 mph - N/A   Clear
8:55 PM 57.2 °F 46.4 °F 67% 30.03 in 10.0 mi NNW 4.6 mph - N/A   Clear
9:15 PM 57.2 °F 44.6 °F 63% 30.03 in 10.0 mi North 3.5 mph - N/A   Clear
9:35 PM 57.2 °F 46.4 °F 67% 30.03 in 10.0 mi ENE 3.5 mph - N/A   Clear
9:55 PM 55.4 °F 46.4 °F 72% 30.04 in 10.0 mi ENE 5.8 mph - N/A   Clear
10:15 PM 57.2 °F 44.6 °F 63% 30.04 in 10.0 mi ENE 4.6 mph - N/A   Clear
10:35 PM 55.4 °F 44.6 °F 67% 30.05 in 10.0 mi East 4.6 mph - N/A   Clear
10:55 PM 55.4 °F 44.6 °F 67% 30.05 in 10.0 mi East 3.5 mph - N/A   Clear
11:15 PM 53.6 °F 46.4 °F 77% 30.05 in 10.0 mi East 5.8 mph - N/A   Clear
11:35 PM 51.8 °F 46.4 °F 82% 30.05 in 10.0 mi East 4.6 mph - N/A   Clear
11:55 PM 51.8 °F 44.6 °F 76% 30.05 in 10.0 mi ESE 4.6 mph - N/A   Clear